Regional Weather Roundup
Issued by NWS Raleigh/Durham, NC

Current Version | Previous Version | Text Only | Print | Product List | Glossary On
Versions: 1 2 3 4 5 6 7 8 9 10 11 12 13 14 15 16 17 18 19 20 21 22 23 24 25 26 27 28
000 ASUS42 KRAH 311210 RWRRAH NORTH CAROLINA WEATHER ROUNDUP NATIONAL WEATHER SERVICE RALEIGH NC 800 AM EDT FRI OCT 31 2014 NOTE: "FAIR" INDICATES FEW OR NO CLOUDS BELOW 12,000 FEET WITH NO SIGNIFICANT WEATHER AND/OR OBSTRUCTIONS TO VISIBILITY. NCZ001-053-055-056-065-067-311300- WESTERN NORTH CAROLINA CITY SKY/WX TMP DP RH WIND PRES REMARKS ASHEVILLE CLEAR 35 33 92 CALM 29.97R JEFFERSON PTCLDY 32 32 100 SW3 29.95S FOG MORGANTON PTCLDY 40 38 91 N3 30.02S HICKORY CLOUDY 42 37 82 CALM 29.97S RUTHERFORDTON PTCLDY 45 38 75 N3 29.97S MOUNT AIRY CLOUDY 41 37 86 NW3 30.00R BOONE PTCLDY 29 29 100 CALM 29.96S $$ NCZ021-022-025-041-071-084-088-311300- CENTRAL NORTH CAROLINA CITY SKY/WX TMP DP RH WIND PRES REMARKS CHARLOTTE CLEAR 40 36 86 N6 29.96S GREENSBORO PTCLDY 41 35 79 N5 29.96S WINSTON-SALEM CLOUDY 44 33 65 NE6 29.98S RALEIGH-DURHAM PTCLDY 43 38 82 N6 29.96R FORT BRAGG CLEAR 44 42 95 N3 29.93S FAYETTEVILLE CLEAR 46 44 93 N10 29.93R BURLINGTON CLEAR 40 34 79 NE3 29.96S LAURINBURG CLEAR 43 42 97 N5 29.94R $$ NCZ011-015-027-028-043-044-047-080-103-311300- NORTHEASTERN NORTH CAROLINA CITY SKY/WX TMP DP RH WIND PRES REMARKS ROCKY MT-WILSO CLOUDY 46 42 86 N5 29.95R GREENVILLE CLOUDY 46 45 93 N3 29.96R WASHINGTON CLOUDY 47 44 90 N5 29.93R ELIZABETH CITY MOCLDY 55 46 71 N10 29.93S MANTEO CLOUDY 59 46 61 N15 29.90S CAPE HATTERAS CLOUDY 60 50 69 NE9G23 29.85S $$ NCZ078-087-090-091-093-098-101-311300- SOUTHEASTERN NORTH CAROLINA CITY SKY/WX TMP DP RH WIND PRES REMARKS LUMBERTON CLEAR 47 44 90 N7 29.92S GOLDSBORO CLEAR 47 47 97 N6 29.92R KINSTON CLEAR 48 45 87 N7 29.94R KENANSVILLE CLOUDY 47 45 91 N6 29.93S NEW BERN CLOUDY 53 47 79 N7 29.92R CHERRY POINT CLOUDY 56 49 77 N9 29.90S BEAUFORT CLOUDY 58 48 69 N15G23 29.88S JACKSONVILLE CLOUDY 50 46 86 N8 29.90R WILMINGTON PTCLDY 50 47 89 N7 29.89F $$

USA.gov is the U.S. government's official web portal to all federal, state and local government web resources and services.